Location: Academy at Carrie F Thomas
(32.8490°N, 97.2053°W)
Time: 14:41:18
(UTC+00:00)

Meteor 1-25 Rocket - Visible Passes

Search period start: 03 July 2022 00:00
Search period end: 13 July 2022 00:00
Orbit: 838 x 890 km, 81.2° (Epoch: 02 July)

Date Brightness Start Highest point End Pass type
(mag) Time Alt. Az. Time Alt. Az. Time Alt. Az.
03 Jul 5.2 08:46:51 29° SE 08:49:12 44° E 08:54:42 10° NNE visible
03 Jul 5.7 10:29:10 13° WSW 10:32:33 21° WNW 10:36:49 10° NNW visible
04 Jul 5.2 08:39:16 33° SE 08:41:12 43° E 08:46:41 10° NNE visible
04 Jul 5.7 10:21:36 15° WSW 10:24:32 21° WNW 10:28:49 10° NNW visible
05 Jul 5.1 08:31:40 36° SE 08:33:11 43° E 08:38:39 10° NNE visible
05 Jul 5.7 10:13:59 16° WSW 10:16:31 21° WNW 10:20:49 10° NNW visible
06 Jul 5.1 08:24:03 39° ESE 08:25:10 43° E 08:30:39 10° NNE visible
06 Jul 5.7 10:06:22 17° W 10:08:31 21° WNW 10:12:48 10° NNW visible
07 Jul 5.1 08:16:24 41° ESE 08:17:10 43° E 08:22:38 10° NNE visible
07 Jul 5.7 09:58:42 18° W 10:00:30 21° WNW 10:04:48 10° NNW visible
08 Jul 5.1 08:08:44 42° ESE 08:09:09 42° E 08:14:37 10° NNE visible
08 Jul 5.7 09:51:02 19° W 09:52:29 21° WNW 09:56:48 10° NNW visible
09 Jul 5.1 08:01:03 42° E 08:01:09 42° E 08:06:36 10° NNE visible
09 Jul 5.7 09:43:21 20° W 09:44:28 21° WNW 09:48:48 10° NNW visible
10 Jul 5.1 07:53:20 42° E 07:53:20 42° E 07:58:34 10° NNE visible
10 Jul 5.7 09:35:38 21° W 09:36:27 21° WNW 09:40:47 10° NNW visible
11 Jul 5.2 07:45:37 41° E 07:45:37 41° E 07:50:33 10° NNE visible
11 Jul 5.7 09:27:55 21° W 09:28:27 21° WNW 09:32:47 10° NNW visible
12 Jul 5.3 07:37:52 40° ENE 07:37:52 40° ENE 07:42:32 10° NNE visible
12 Jul 5.7 09:20:10 21° WNW 09:20:26 21° WNW 09:24:46 10° NNW visible
